Location: Plainartige
(45.6866°N, 1.7993°E)
Time: 11:26:28
(UTC+00:00)

Gurwin Techsat 1B - Pass Details

Date: 02 July 2022
Orbit: 812 x 813 km, 98.8° (Epoch: 10 August)

Event Time Altitude Azimuth Distance (km) Brightness Sun altitude
Rises 03:17:12 0° 8° (N) 3,346 12.8 -7.6°
Reaches altitude 10° 03:19:39 10° 1° (N) 2,410 11.8 -7.3°
Maximum altitude 03:24:36 41° 293° (WNW) 1,161 9.3 -6.7°
Drops below altitude 10° 03:29:33 10° 224° (SW) 2,395 10.4 -6.0°
Enters shadow 03:30:15 - 222° (SW) 2,658 10.6 -6.0°
